Lid_Strength_Index
-1 -1 1 3 7 7 9 8 6 7 7 5 4 5 6 5 7 9 0 -0 -1 -1 -1 -1 -2 -1 -1 -2 -2 -1 -1 -1 -1 -1 -1 -1 -1 -1 -1 -1 -1 -1 -1 -1 -1 -1 -1 -1 -1
1 3 3 4 8 9 9 7 7 6 5 4 4 5 5 7 3 3 2 -0 -1 -1 -2 -2 -1 -1 -1 -1 -1 -1 -1 -1 -1 -2 -1 -1 -1 -1 -1 -1 -1 -1 -1 -1 -1 -1 -1 -1 -1
4 5 6 5 6 10 9 7 6 5 4 4 5 3 4 5 3 2 0 -1 -1 -1 -1 -2 -1 -1 -1 -1 -1 -1 -1 -1 -1 -1 -1 -1 -1 -1 -1 -1 -1 -1 -1 -1 -1 -1 -1 -1 -1
4 5 6 7 9 8 7 6 5 5 4 4 4 5 3 2 2 1 -1 -1 -1 -1 -1 -1 -1 -1 -1 -1 -1 -1 -1 -1 -1 -1 -1 -1 -1 -1 -1 -1 -1 -1 -1 -1 -1 -1 -1 -1 -2
4 5 6 6 8 7 6 5 5 5 5 4 4 5 5 2 0 -0 -0 -1 -0 -1 -1 -2 -1 -1 -1 -1 -1 -1 -1 -1 -1 -1 -1 -1 -1 -1 -1 -1 -1 -1 -1 -1 -1 -1 -1 -2 -2
5 5 7 7 7 7 5 4 4 5 5 4 4 5 4 1 1 0 -0 -0 -1 -1 -1 -2 -1 -1 -1 -1 -1 -1 -1 -1 -1 -1 -1 -1 -1 -1 -1 -1 -1 -1 -1 -1 -1 -1 -2 -2 -2
6 5 6 7 7 7 6 4 5 5 5 6 5 5 3 2 0 -0 -0 -1 -1 -1 -1 -2 -2 -2 -1 -1 -1 -1 -1 -1 -1 -1 -1 -1 -1 -1 -1 -1 -1 -1 -1 -1 -1 -1 -1 -1 -1
6 5 7 6 7 8 5 5 4 5 6 4 4 6 5 2 0 -0 -0 -0 -1 -1 -1 -1 -2 -2 -2 -2 -1 -1 -1 -1 -1 -1 -1 -1 -1 -1 -1 -1 -1 -1 -1 -1 -1 -1 -1 -1 -1
6 6 7 7 7 6 4 5 3 3 5 4 3 4 2 1 0 1 1 0 0 -0 -1 -1 -1 -1 -2 -2 -1 -1 -1 -1 -1 -1 -2 -1 -2 -2 -2 -1 -1 -1 -1 -1 -1 -1 -1 -2 -1
7 6 6 5 5 5 5 4 4 4 5 4 4 2 1 1 1 1 1 1 1 0 -0 -1 -1 -1 -1 -1 -2 -2 -2 -2 -2 -2 -2 -2 -2 -2 -2 -2 -1 -1 -1 -1 -1 -1 -2 -2 -1
6 6 6 5 4 4 5 4 4 4 5 4 4 3 2 2 1 1 1 1 1 0 -0 -1 -1 -2 -1 -1 -1 -1 -2 -2 -2 -2 -2 -2 -2 -2 -2 -2 -2 -2 -2 -1 -2 -2 -2 -2 -2
6 5 5 5 4 5 5 4 5 4 4 2 2 2 2 2 2 1 1 1 1 0 -0 -1 -1 -1 -2 -1 -1 -1 -1 -2 -2 -2 -2 -2 -1 -2 -1 -1 -1 -2 -2 -2 -2 -1 -2 -2 -2
5 6 5 5 4 4 4 5 5 4 3 2 2 2 2 2 2 1 1 1 1 1 0 -0 -1 -1 -1 -1 -1 -1 -1 -1 -2 -2 -2 -2 -2 -2 -2 -1 -1 -2 -2 -2 -1 -2 -1 -1 -1
4 5 5 5 5 4 5 5 5 4 3 3 3 2 2 2 2 2 1 2 2 1 0 -0 -1 -1 -1 -1 -1 -1 -1 -1 -1 -2 -1 -2 -2 -2 -2 -2 -1 -2 -2 -2 -2 -1 -1 -1 -1
5 6 6 5 5 6 4 7 6 4 3 3 3 3 2 2 2 2 1 1 1 1 1 0 -1 -1 -1 -1 -1 -1 -1 -1 -1 -1 -2 -1 -2 -1 -2 -1 -1 -2 -2 -2 -2 -1 -1 -1 -1
6 6 8 6 5 5 5 7 5 4 4 4 4 3 3 2 2 1 1 1 0 -0 -0 -1 -0 -1 -1 -1 -1 -1 -1 -1 -1 -1 -1 0 -0 -2 -2 -1 -1 -2 -1 -1 -1 -1 -1 -0 -1
7 8 8 8 5 6 6 7 5 4 4 4 4 3 3 3 2 1 1 1 0 -0 -0 -0 -1 -0 -1 -1 -1 -1 -1 -1 -2 -2 0 0 -0 -1 -1 -1 -2 -2 -1 -1 -1 -1 -1 -0 -0
8 8 7 8 7 6 7 7 5 4 4 4 4 4 3 3 3 1 1 0 0 -0 -0 -1 -0 -1 -1 -1 -1 -1 -1 -1 0 1 1 -1 -0 -0 -1 -1 -2 -2 -1 -1 -1 -1 -1 -1 -0
7 7 7 6 6 7 7 6 5 5 5 5 4 4 4 3 2 1 1 1 0 0 0 -0 0 -0 -0 0 1 1 0 1 2 1 0 1 0 -1 -2 -1 -2 -2 -1 -1 -1 -1 -1 0 -0
6 7 7 6 6 7 7 7 5 4 5 4 4 4 4 3 3 2 2 1 1 1 0 0 0 0 -0 0 -0 -1 -1 -1 1 2 1 -0 -1 -2 -2 -2 -1 -2 -1 -1 -1 -1 0 0 -0
7 7 7 7 6 6 7 7 6 5 4 4 4 3 3 3 3 3 2 2 1 1 1 1 0 0 -0 -0 -1 -1 1 1 3 2 1 -0 -2 -2 -2 -2 -2 -2 -1 -0 -1 -1 -1 1 1
8 6 6 7 8 10 6 10 7 5 5 5 4 4 4 3 3 3 2 2 2 1 1 1 1 0 -0 -0 0 1 3 4 3 2 -0 -1 -2 -2 -2 -2 -2 -2 -1 -1 -1 -1 -1 -0 2
7 5 6 7 7 8 8 9 8 6 6 5 5 4 3 3 3 3 2 2 1 1 2 1 1 1 0 -0 0 3 2 3 2 -0 -1 -1 -2 -2 -2 -2 -2 -2 -1 -1 -1 -1 -1 0 1
5 6 6 6 7 11 8 9 9 7 6 5 4 4 3 3 3 2 2 2 2 2 2 1 1 1 1 0 0 1 1 1 1 0 0 -0 -1 -1 -2 -2 -2 -2 -2 -1 -1 -1 -1 -1 -1
6 7 11 11 11 12 7 9 8 6 5 5 4 4 3 3 3 3 3 2 2 2 2 2 1 2 1 1 1 3 2 0 0 0 0 -0 -0 -0 -1 -2 -2 -1 -2 -1 -2 -1 -1 -1 -0
7 7 10 13 12 11 8 10 8 5 4 4 4 4 3 3 3 3 2 2 3 2 2 2 1 2 1 1 1 3 2 2 0 -0 -0 -0 -0 -1 -2 -2 -2 -1 -1 -0 -1 -1 -1 -1 -0
7 9 6 9 9 10 9 8 6 5 5 4 4 4 3 3 3 2 2 2 3 2 2 1 2 1 1 0 0 2 1 -0 -0 -1 -1 -1 -1 -1 -1 -2 -1 -0 0 0 -1 -0 -0 -0 -0
6 6 9 9 12 13 10 10 9 7 6 5 4 4 3 4 3 3 2 2 2 2 1 1 1 1 1 0 0 1 1 -0 -1 -1 -1 -1 -1 -1 -1 -1 -0 1 1 1 0 0 0 0 1
7 8 7 8 9 12 12 10 6 6 5 5 4 3 3 4 3 3 3 2 2 2 2 1 1 1 1 1 0 0 0 -0 -1 -0 -1 -1 -1 -1 0 0 1 2 2 1 0 1 1 1 2
6 7 7 10 10 9 10 10 5 5 4 4 4 3 3 3 3 3 3 2 2 2 2 2 1 1 1 0 0 0 -0 -0 -0 -0 -1 -1 -1 -0 0 1 2 2 2 2 2 2 2 2 3